Torna al catalogo

SL-8 R/B

AttivoLEO
NORAD 15006·ROCKET BODY·🇷🇺 Russia

Lanciato May 28, 1984 da Plesetsk Cosmodrome

Loading…

Prossimi Passaggi (prossime 24 ore)

TLE

AggiornatoSource: Space-Track

Epoca: Sep 14, 2026, 23:35 UTC

1 15006U 84052J   26257.98264248 -.00000072  00000-0 -51300-3 0  9999
2 15006  74.0091 100.6072 0132391 155.0478  22.5838 12.23753461889614

Traccia SL-8 R/B in tempo reale con AllMySat

Download on the App Store